Location: Ferchesar
(52.6477°N, 12.4298°E)
Time: 21:03:50
(UTC+02:00)

A-11 Canister half - Pass Details

Date: 06 March 2021
Orbit: 1525 x 1683 km, 47.3° (Epoch: 11 April)

Event Time Altitude Azimuth Distance (km) Brightness Sun altitude
Exits shadow 02:56:16 27° 155° (SSE) 2,699 10.1 -33.3°
Maximum altitude 02:57:57 28° 139° (SE) 2,622 10.1 -33.1°
Drops below altitude 10° 03:05:34 10° 85° (E) 3,747 11.6 -32.3°
Sets 03:09:06 0° 75° (ENE) 4,714 12.5 -31.8°
